CAPE
679 572 1716 1603 1609 1733 1764 1905 1975 1906 1742 1650 1434 1979 2117 2007 2085 2065 2060 1791 1473 1365 1406 1394 1519 1656 1735 1565 1186 1153 1091 1016 951 986 1289 687 748 726 666 524 871 796 1194
651 586 1238 1537 1690 1876 1931 1857 1710 1646 1595 1932 1903 2166 2079 2021 2083 1980 1810 1651 1418 1941 1650 1673 1640 1642 1697 1708 1569 1201 1185 1190 900 674 835 997 696 586 475 470 826 367 501
653 673 840 1287 1708 1866 1992 2020 1881 1937 1951 1933 1881 1858 2190 1853 1624 1993 1543 1952 1811 1793 1654 1609 1608 1602 1593 1621 1703 1703 1226 996 806 492 673 1100 1095 1062 1128 972 543 1144 1179
440 549 494 1403 1834 1738 1738 1982 1997 1979 2053 2012 2264 1933 1984 1572 1431 1253 1830 1836 1619 1652 1581 1464 1305 1177 1074 957 919 926 1130 1249 1141 1173 1317 200 759 573 1273 1333 801 295 460
799 506 797 1521 1638 1770 1684 1394 1824 1661 1589 2272 2195 2087 1522 1671 1400 1416 1638 1427 1508 1281 1185 1164 1174 1173 1141 1132 1019 1013 973 672 738 1469 749 383 448 675 1239 1503 770 210 884
619 675 660 1415 1537 1882 1481 1671 1985 1416 986 1912 2212 1553 2178 1588 1517 1475 1478 1397 1198 906 633 623 887 1419 1762 1891 1895 1774 1504 1227 1307 1843 693 245 336 658 1120 1323 1280 836 1081
607 775 770 1630 1587 1828 1683 1339 1972 1306 1833 2267 2141 2070 2072 2183 1705 1506 1122 790 737 959 1431 1897 2240 2548 2722 2549 2137 1973 2102 2265 2104 2052 1456 531 604 242 876 1333 867 603 842
550 768 924 1470 1781 1484 1173 1654 1664 1438 2249 1925 1494 1673 1663 1237 1070 935 927 1203 1548 1854 2193 2407 2536 2371 1968 1805 1522 1563 1534 1649 1785 1777 1270 1027 8 200 560 1766 1583 1574 807
375 675 913 1373 1238 622 689 978 1682 949 1612 1624 1346 1129 985 1139 1003 947 921 999 1619 2044 2209 1857 2057 1723 1736 1465 1173 933 782 1358 1280 250 1632 1260 241 224 484 1093 1808 1797 1533
511 403 600 452 762 195 554 1743 1365 685 1041 891 913 1011 947 950 943 1199 1490 1122 1620 1841 1847 1567 1336 1382 1427 1376 907 512 710 1349 835 328 1588 977 434 278 460 457 874 1783 1874
344 219 697 187 335 350 695 1504 1678 1747 1299 947 729 688 1237 1648 1789 1648 570 668 1140 1063 1113 1000 1095 1390 1548 1521 1161 547 649 631 642 1536 1691 1039 698 691 703 1628 1335 1385 1960
95 57 118 75 128 335 206 565 552 342 839 1257 1240 1480 1738 1428 1225 1101 806 1078 1274 1212 1188 928 1189 1550 1708 1584 1206 820 658 539 605 996 1386 728 736 952 894 1498 1564 1715 2115
39 2 35 25 12 123 21 318 368 578 793 1186 1366 2024 1834 1821 1712 1556 1483 1963 2317 1496 1504 935 1341 1452 1540 1399 1239 1108 1015 334 297 326 892 625 795 1306 1254 1516 1654 1708 1610
16 2 18 11 33 239 305 163 193 367 450 368 1354 2028 1785 2104 1180 1388 1267 1276 1763 1128 1482 1608 1352 1799 1620 1854 1371 1324 1188 869 585 203 1058 697 716 1163 1345 1411 1591 1452 1188
26 0 14 116 373 204 504 262 231 304 239 902 1140 1734 1367 1302 1295 1334 1344 1608 1727 1641 1763 1715 1603 1856 1568 1369 1427 1617 1457 1281 1012 806 715 867 671 797 1212 1282 1425 1234 1072
38 0 3 95 358 240 485 643 590 252 767 611 799 1634 1833 1949 1830 1452 1556 1474 1833 1770 1742 1688 1349 1955 1498 1054 1015 1173 1389 1230 1091 1168 833 1222 896 771 851 1033 1222 1224 1059
78 0 0 6 76 107 532 1043 808 313 225 524 930 1308 1667 1982 2034 1863 1404 1396 2040 1752 1838 1323 1188 1181 1028 1166 1295 1000 788 1214 1231 957 1138 967 1211 1003 929 895 860 910 1058
56 0 0 0 0 89 593 828 454 52 86 376 639 886 1464 1704 1797 1586 1304 1514 2091 1681 1146 915 1649 389 4 1336 1507 1294 1116 897 1122 878 932 1222 1316 1383 1334 1257 1294 1129 1236
195 3 0 0 0 52 448 426 481 406 731 447 622 739 1622 1455 1403 1614 1248 1490 1775 930 1016 2098 1956 497 13 0 70 364 1478 1078 849 563 843 1178 1443 1538 1350 1553 1281 829 1027
250 80 0 0 0 54 306 363 309 479 397 515 543 707 1630 1266 1431 1798 1580 1844 2144 1242 2241 1662 1605 1250 742 778 19 429 1315 1095 738 511 915 1014 1486 1595 1548 1441 1705 1658 1248
156 74 0 0 77 258 281 260 412 435 322 380 491 995 1490 1313 1584 1806 1079 1602 1706 1895 2169 1501 1059 108 0 1229 1312 1384 1460 1245 814 859 890 1361 1614 1492 1412 1425 1649 1512 1473
278 262 113 1 267 548 422 341 340 259 346 190 239 1032 1343 1476 1549 1461 1946 1191 1476 1559 2524 2206 1217 654 1042 1698 1919 1754 917 668 542 929 965 336 666 1501 1344 1426 1397 1547 1446
351 382 218 61 215 760 570 446 528 754 851 549 342 463 729 1013 1268 1542 1898 2109 2320 2336 1655 2394 2425 1724 1785 1918 2003 1472 1380 921 1106 1129 819 886 1212 1348 1103 959 867 1157 1347
280 565 524 192 188 600 796 494 758 548 481 298 280 165 111 391 787 1019 1146 1732 2183 2141 1496 2234 2400 2341 1943 1966 1797 1967 1742 1734 1482 1249 1398 845 1233 1010 770 589 524 479 672
237 450 701 810 368 765 806 1063 664 803 292 314 258 256 575 775 945 899 862 1121 1852 1871 2175 2779 2792 2465 2199 1950 1925 1891 1693 1447 1694 1496 902 813 985 1163 435 407 494 520 523
218 270 481 1129 1523 864 1062 950 1259 1312 644 475 323 408 516 446 549 1326 1198 1171 1652 2091 2307 2631 2689 2856 2687 2598 2749 2449 1903 1716 1751 653 790 574 1149 1351 659 471 392 374 303
CIN
-2 -21 0 -2 -2 -4 -7 -4 -2 -2 -5 -6 -17 0 0 0 0 0 0 0 0 -7 -2 0 0 0 0 -4 -28 -33 -33 -28 -26 -22 -10 -35 -30 -31 -27 -24 -6 -2 -9
-4 -14 -6 -4 0 0 0 -1 -5 -5 -3 0 -1 0 0 0 0 0 0 0 -5 0 0 0 0 0 0 -1 -3 -20 -14 -8 -18 -32 -31 -21 -36 -45 -45 -37 -12 -36 -42
-3 -12 -8 -4 -1 0 0 0 0 0 0 -1 0 0 -2 0 0 0 0 0 0 0 0 0 0 -4 -8 -8 -7 -7 -27 -27 -24 -49 -29 -8 -11 -26 -11 -12 -30 -8 -1
-3 -4 -14 -3 0 0 0 -1 -1 0 0 0 0 0 0 -1 -5 -16 0 -1 -5 -2 -5 -9 -17 -30 -38 -43 -49 -44 -26 -23 -30 -30 -15 -2 -4 -59 -9 -6 -19 -79 -45
-5 -2 -23 0 0 0 -2 -6 -2 -3 -2 0 0 0 -3 0 -3 -8 -5 -12 -13 -30 -36 -40 -44 -47 -53 -49 -52 -50 -46 -64 -57 -28 -2 -4 -5 -50 -18 -1 -26 -112 -3
-11 -4 -44 0 0 0 -5 -3 -2 -7 -33 -1 0 -6 0 -3 -9 -11 -14 -28 -50 -71 -92 -93 -67 -40 -24 -22 -24 -31 -39 -56 -56 -23 -3 -42 -12 -52 -29 -7 -3 -12 -5
-2 -3 -10 0 0 0 -3 -7 0 -7 0 0 0 0 0 0 -5 -23 -57 -76 -81 -64 -44 -30 -24 -16 -11 -16 -27 -34 -29 -22 -31 -5 -8 -1 -32 -93 -43 -14 -28 -36 -17
-3 -2 -3 -1 0 -1 -8 -3 -1 -4 0 0 -11 -5 -12 -34 -51 -65 -64 -49 -33 -27 -21 -22 -25 -31 -40 -42 -53 -60 -67 -76 -35 -12 -1 -2 -56 -122 -84 -7 -2 -3 -26
-3 -2 -3 -1 -3 -58 -46 -14 0 -30 -2 -6 -25 -42 -55 -45 -65 -65 -62 -64 -47 -35 -39 -50 -43 -43 -41 -41 -44 -63 -76 -90 -26 -127 -2 -8 -113 -135 -106 -61 -11 -2 -7
-4 -2 -2 -17 -7 -76 -37 0 -6 -71 -40 -51 -58 -57 -68 -65 -56 -49 -48 -64 -54 -50 -48 -54 -60 -45 -53 -67 -53 -68 -69 -70 -148 -200 -9 -51 -95 -138 -115 -112 -71 -9 -1
-4 -11 -1 -29 -34 -34 -9 -2 -3 -2 -27 -45 -58 -64 -60 -12 -9 -25 -77 -69 -63 -72 -61 -56 -50 -47 -56 -70 -59 -39 -46 -7 -3 -18 -47 -95 -96 -96 -97 -47 -47 -34 -5
-53 -90 -42 -74 -61 -29 -18 -30 -6 -32 -10 -6 -3 -11 -23 -2 -7 -8 -32 -51 -47 -56 -57 -54 -47 -47 -46 -13 -18 -22 -3 -2 -1 -4 -53 -96 -101 -86 -85 -56 -44 -29 -6
-103 -1 -150 -146 -187 -26 -87 -5 -2 -2 -1 -2 -3 -7 -8 -1 -7 -11 -3 -7 -9 -23 -9 -169 -68 -8 -2 -1 -3 -2 -3 -2 -2 -6 -80 -90 -97 -72 -71 -53 -40 -21 -12
-67 -4 -166 -140 -169 -16 -3 -22 -19 -4 -3 -2 -1 -5 -8 -4 -1 -13 -5 -2 -11 -2 -3 -3 -2 -1 -1 -3 -1 -4 -3 -5 -3 -2 -63 -85 -97 -87 -71 -61 -38 -35 -37
-142 0 -154 -88 -57 -67 -13 -13 -16 -4 -2 -3 -3 -4 -2 -3 -3 -3 -3 -3 -3 -2 -4 -3 -2 -1 -3 -2 -1 -2 -2 -3 -2 -2 -6 -68 -78 -75 -62 -56 -44 -41 -40
-158 0 -63 -98 -79 -91 -35 -5 -2 -11 -4 -2 -1 -2 -6 -3 -5 -2 -2 -3 -3 -2 -2 -2 -9 -2 -3 -3 -3 -4 -2 -3 -3 -2 -6 -42 -64 -65 -74 -64 -55 -46 -48
-132 0 0 -197 -139 -138 -42 -3 -2 -8 -4 -2 -3 -8 0 -7 -6 -16 -3 -2 -7 -2 -2 -1 -5 -3 -1 -3 -3 -1 -2 -2 -1 -30 -14 -1 -56 -50 -46 -53 -55 -58 -50
-163 0 0 0 0 -141 -52 -12 -9 -61 -21 -1 -2 -3 -5 -1 -3 -7 -2 -3 -19 -4 -1 -3 -6 -18 -34 -2 -1 -1 -3 -1 -24 -17 -3 -7 0 -2 -31 -39 -47 -51 -40
-58 -24 0 0 0 -153 -76 -57 -30 -15 -4 -2 -1 0 -7 -1 -1 -5 -2 -3 -14 -3 -15 -16 -32 -51 -43 0 -99 -53 -5 -5 -16 -4 -17 -1 -2 -1 -2 -50 -36 -54 -42
-37 -139 0 0 0 -139 -82 -66 -64 -13 -13 -1 -3 -1 -1 -1 0 -2 -2 -4 -4 -2 -15 -36 -59 -69 -69 -91 -196 -87 -33 -22 -9 -26 -2 -3 -3 -2 -1 -7 -5 -10 -23
-69 -155 0 0 -154 -93 -77 -80 -33 -31 -36 -18 -2 -1 -2 0 0 -2 -2 -3 -4 -2 -18 -49 -91 -129 -1 -56 -72 -41 -44 -11 -45 -13 -2 -2 -11 -8 -11 -6 -10 -10 -15
-63 -77 -165 -77 -99 -68 -48 -52 -46 -56 -15 -40 -29 -4 -2 -1 -1 -2 -2 -2 -1 -1 -2 -40 -70 -99 -99 -22 -1 -2 -3 -17 -7 -4 -34 -79 -4 -4 -7 -6 -13 -14 -3
-58 -76 -125 -227 -139 -60 -37 -37 -30 -14 -11 -7 -27 -26 -21 -10 -1 0 -1 -1 -4 -3 -4 -10 -27 -40 -15 -17 -3 -8 -3 -11 -15 -13 -47 -55 -13 -1 -7 -5 -4 0 -1
-68 -45 -66 -152 -165 -96 -53 -40 -17 -38 -37 -49 -46 -56 -106 -74 -23 -4 -8 -1 0 -1 -8 -6 -1 -4 -18 -12 -2 -6 -13 -11 -3 -28 -16 -49 -13 -2 -32 -2 -2 -22 -20
-96 -59 -47 -69 -134 -78 -81 -33 -44 -38 -70 -61 -58 -48 -32 -21 -18 -34 -47 -8 -1 -2 -3 -8 -2 -8 -7 -10 -9 -2 -2 -14 -4 0 -48 -46 -6 -19 -13 -1 -7 -6 -8
-106 -110 -55 -37 -24 -77 -66 -70 -47 -14 -73 -53 -78 -52 -47 -61 -62 -28 -35 -19 -3 -3 -4 -1 -4 -5 -5 -5 -4 -3 -5 -4 -2 -48 -15 -36 -4 -7 -3 -4 -6 -13 -8
Wind_Speed
28 28 27 27 27 27 27 26 26 25 25 24 23 23 23 23 21 15 11 16 18 19 20 19 20 16 17 18 22 22 22 22 21 20 18 17 17 16 15 12 9 15 15
29 27 27 26 26 26 26 25 25 25 25 24 23 23 21 19 19 19 16 15 17 21 20 20 18 16 15 18 21 22 21 21 19 18 17 17 17 16 15 13 13 14 14
28 26 26 25 26 25 25 25 25 24 24 23 22 21 18 18 18 17 17 18 20 18 19 21 20 19 18 20 22 21 21 21 19 17 13 14 16 16 14 14 14 14 14
26 27 26 25 24 25 25 25 25 24 24 23 22 22 19 18 18 17 14 14 15 17 17 18 18 20 21 19 19 20 20 19 17 17 15 12 13 16 15 14 14 13 14
28 25 24 25 25 25 25 25 25 25 24 24 24 23 22 20 18 17 15 14 14 14 14 15 16 18 18 17 16 16 16 15 15 15 15 13 15 14 13 12 13 13 12
26 23 25 26 26 26 25 25 25 25 25 24 24 24 23 23 24 22 19 14 13 14 15 10 13 10 13 13 12 12 13 13 13 14 19 18 16 15 13 11 12 11 11
27 25 26 26 26 26 26 25 26 25 25 24 24 23 23 22 21 20 18 16 13 12 12 12 11 10 10 10 10 10 10 11 12 14 18 17 17 16 15 11 10 11 11
28 26 26 26 26 25 25 25 25 25 21 24 23 23 23 22 22 21 19 18 16 14 12 10 10 9 10 10 10 9 9 12 14 16 15 15 17 16 16 14 11 10 10
28 19 25 26 26 25 25 25 24 24 22 23 23 23 23 23 22 21 19 17 16 15 12 10 9 9 10 12 12 11 10 11 18 15 14 15 16 16 15 13 12 10 9
24 26 18 24 26 25 25 24 24 24 23 23 22 23 24 24 23 21 21 19 16 15 13 11 9 11 12 13 11 10 11 8 16 16 14 17 16 15 15 13 11 10 9
24 23 25 24 25 24 24 24 24 24 23 23 23 24 22 21 22 24 22 20 18 17 16 16 15 12 12 12 12 9 8 11 15 20 17 17 15 15 14 13 11 9 9
27 26 25 25 25 24 24 23 23 23 23 23 23 21 20 22 17 20 21 20 18 16 15 19 21 11 4 13 10 8 8 9 20 18 17 18 16 14 13 12 10 9 8
24 26 25 24 24 23 22 23 22 22 22 22 23 19 21 20 19 19 19 19 16 14 9 24 16 4 6 6 9 11 8 8 14 18 19 21 17 13 11 10 9 8 7
20 23 25 22 24 22 22 22 22 22 23 23 24 22 22 20 18 13 11 14 15 15 20 1 10 3 3 11 17 16 15 16 18 15 17 18 16 12 10 9 9 9 9
20 18 22 22 24 23 22 21 21 22 23 23 23 21 17 16 16 14 13 10 11 7 12 14 11 9 3 3 13 5 19 11 6 18 10 14 14 11 9 8 8 8 9
19 18 19 22 23 23 22 22 22 21 22 23 22 22 19 15 15 15 15 10 7 13 3 12 19 2 12 11 16 6 13 14 8 21 16 11 12 11 9 8 8 8 8
18 18 18 22 22 23 22 22 22 21 23 21 20 20 18 17 16 14 12 10 23 6 12 26 24 28 24 21 17 11 7 4 14 5 15 13 12 11 9 8 9 9 10
19 19 19 22 21 23 22 22 21 21 21 20 19 18 18 17 16 14 11 9 22 5 13 7 27 30 30 19 12 12 10 6 7 4 15 21 18 16 10 12 13 14 12
17 19 21 23 21 23 22 21 21 19 19 19 19 17 17 16 15 13 11 12 11 10 14 15 14 11 19 17 14 13 8 3 7 10 13 16 11 15 16 11 12 12 10
15 19 21 23 21 24 21 22 20 18 18 18 18 17 16 17 15 13 11 13 8 12 12 7 12 6 2 5 5 5 2 1 6 12 18 18 20 18 16 18 17 13 10
16 18 20 23 21 25 23 22 20 18 17 17 17 17 17 17 15 14 12 11 10 10 12 8 4 2 4 0 3 3 4 5 15 10 19 15 22 18 23 21 21 17 11
15 17 20 22 24 27 24 23 21 19 16 16 17 16 17 17 16 13 12 8 8 6 7 9 5 2 1 1 3 4 11 11 13 19 23 27 2 22 18 24 24 22 19
16 16 19 23 26 28 27 23 20 19 17 16 16 15 16 17 17 14 11 8 7 6 4 11 8 7 3 3 5 12 15 11 11 15 24 27 22 21 24 24 24 23 23
20 16 17 23 26 29 29 25 21 19 17 16 15 15 15 16 17 14 11 8 7 6 3 5 10 7 7 6 8 9 10 9 16 16 21 28 28 25 26 24 22 22 24
20 16 18 21 24 27 28 28 21 21 17 16 15 14 14 14 16 14 12 8 7 5 6 7 6 8 7 8 8 7 12 14 13 17 19 22 25 22 19 20 22 24 24
21 20 19 17 20 23 24 28 27 20 19 16 14 14 14 13 14 13 11 8 7 4 3 8 8 7 8 9 10 11 14 18 20 19 18 19 22 20 18 20 23 24 24
Wind_Direction
112 113 122 107 110 107 105 102 102 104 107 111 122 119 104 78 50 17 355 18 28 32 39 35 43 24 28 32 56 54 48 46 45 38 44 43 44 38 23 342 358 42 36
110 108 116 105 101 99 98 98 94 98 103 107 112 92 64 43 38 39 23 17 24 40 38 38 28 20 17 29 41 43 37 35 38 44 56 61 49 42 43 3 327 34 31
106 101 108 102 102 95 96 97 98 97 100 96 81 66 38 36 36 32 34 28 37 29 32 40 41 34 30 48 60 58 52 53 65 62 1 102 64 46 40 29 22 30 32
96 110 102 105 95 96 100 106 100 100 97 91 78 74 52 43 38 35 19 15 15 20 18 24 27 44 73 88 80 65 63 71 100 116 179 302 49 52 55 56 37 36 44
106 93 88 98 104 111 105 114 109 99 106 102 91 82 76 57 46 39 27 5 1 355 350 350 357 21 88 88 90 84 92 106 118 132 118 277 259 40 28 46 44 39 22
95 79 96 107 114 110 113 123 110 107 117 121 114 111 114 111 98 82 49 2 343 346 345 255 301 202 130 122 112 111 113 124 139 145 77 63 71 50 43 14 344 10 21
103 92 104 111 118 125 121 123 114 118 126 127 124 123 123 126 130 138 146 153 167 171 164 156 163 175 180 164 151 155 147 140 176 156 41 41 37 60 64 59 1 10 22
113 99 106 116 127 132 135 127 116 125 140 128 127 124 124 125 127 130 136 139 146 153 157 160 158 185 213 203 188 184 160 132 152 134 49 48 44 60 66 73 64 28 19
121 75 110 113 124 131 128 130 129 131 140 128 127 120 117 121 125 129 136 142 136 132 144 145 149 139 159 206 227 217 193 122 303 243 48 54 47 51 57 67 71 58 43
163 116 79 106 130 129 122 132 122 125 134 132 130 126 122 116 118 125 125 124 135 135 131 130 121 130 162 144 145 202 203 77 75 123 122 44 46 46 46 58 74 64 58
172 176 114 111 142 129 119 115 111 129 132 128 130 131 131 131 116 102 115 115 117 118 117 116 114 120 148 152 140 143 192 252 34 27 21 40 40 39 37 39 47 51 35
139 136 123 135 127 135 127 125 123 129 130 131 123 137 135 123 151 133 117 120 118 124 136 136 105 123 219 123 147 152 260 250 28 39 38 38 38 49 53 49 54 64 62
120 139 132 126 132 135 103 136 134 135 124 125 135 153 143 146 146 137 120 116 132 120 154 43 109 257 275 241 269 279 248 249 290 331 30 28 42 62 67 63 66 63 57
110 119 131 113 131 148 128 140 137 131 123 123 121 143 138 150 146 170 173 147 128 126 90 137 315 186 215 278 310 297 283 287 294 269 34 34 42 57 67 71 72 65 50
113 104 123 116 134 137 149 132 150 116 135 103 131 143 166 164 166 168 162 170 150 252 31 81 60 94 162 165 275 213 298 252 104 17 44 49 47 53 61 62 63 55 40
117 113 115 126 134 134 148 138 139 141 128 137 135 125 157 182 178 166 146 172 171 301 204 39 311 143 279 273 287 256 266 264 241 13 26 43 42 45 51 46 24 21 18
123 120 116 131 132 134 144 140 145 126 133 136 133 142 165 179 155 186 157 171 16 169 71 331 308 330 306 294 285 268 245 191 259 56 33 32 33 38 42 28 12 1 355
129 128 125 137 129 138 140 140 144 132 138 144 138 132 147 159 165 159 160 108 345 138 61 63 339 329 305 285 272 274 266 231 65 117 23 5 11 12 23 16 2 350 346
129 132 139 145 135 140 136 139 142 121 157 154 151 151 124 160 166 167 172 86 83 79 70 65 58 50 267 269 259 280 261 218 77 53 36 24 38 22 14 28 16 5 357
133 137 145 149 140 147 135 145 135 128 147 157 158 165 137 164 165 172 166 99 114 80 81 91 74 84 136 243 244 263 264 162 66 46 25 20 15 17 20 9 2 5 5
139 141 145 150 141 154 147 146 145 140 136 144 152 150 160 177 180 168 174 126 111 97 73 85 131 45 284 89 37 22 9 18 28 23 17 21 8 15 9 13 7 5 10
145 146 148 152 154 164 159 162 160 158 136 141 147 135 161 177 191 178 157 151 108 107 93 97 109 56 72 50 45 358 34 31 30 12 14 12 52 22 23 15 11 8 12
153 151 152 157 162 170 174 166 158 178 177 139 152 151 160 173 191 183 166 153 125 108 91 75 72 64 33 35 52 43 32 20 358 15 13 13 17 21 17 19 17 12 6
161 156 154 159 165 175 182 172 166 161 156 152 147 147 152 155 190 190 169 149 128 111 120 93 64 50 49 19 33 23 27 7 16 10 11 8 8 11 14 13 15 12 3
164 163 161 159 164 172 175 188 164 174 159 159 154 145 139 169 197 189 184 156 131 120 77 55 51 45 26 24 16 358 14 15 17 14 8 12 12 16 23 22 11 6 9
168 167 165 163 164 168 171 183 190 172 176 169 151 151 149 157 165 161 165 147 140 121 91 56 39 27 19 19 20 11 17 21 19 21 16 13 14 25 28 22 16 15 11